| time (UTC) | temp C | wind direction | speed KPH | gust KPH | rain 1hr cm | rain 24hr cm | rain mn cm | humidity % | barometer mb |
| 20260502220101 | 11 | 271 | 1.6 | 11.3 | 0.00 | 0.00 | 0.00 | 39 | 1018.2 |
| 20260502214552 | 11 | 262 | 1.6 | 11.3 | 0.00 | 0.00 | 0.00 | 42 | 1018.2 |
| 20260502213051 | 11 | 358 | 0.0 | 9.7 | 0.00 | 0.00 | 0.00 | 42 | 1018.1 |
| 20260502211551 | 11 | 34 | 3.2 | 14.5 | 0.00 | 0.00 | 0.00 | 41 | 1018.2 |
| 20260502210104 | 11 | 222 | 0.0 | 4.8 | 0.00 | 0.00 | 0.00 | 44 | 1018.2 |
| 20260502204548 | 10 | 283 | 0.0 | 11.3 | 0.00 | 0.00 | 0.00 | 43 | 1018.2 |
| 20260502203044 | 10 | 271 | 0.0 | 4.8 | 0.00 | 0.00 | 0.00 | 46 | 1018.4 |
| 20260502201547 | 10 | 266 | 1.6 | 14.5 | 0.00 | 0.00 | 0.00 | 43 | 1018.5 |
| 20260502200054 | 10 | 276 | 1.6 | 12.9 | 0.00 | 0.00 | 0.00 | 44 | 1018.7 |
| 20260502194542 | 10 | 277 | 1.6 | 6.4 | 0.00 | 0.00 | 0.00 | 44 | 1018.9 |
| 20260502193043 | 11 | 345 | 0.0 | 12.9 | 0.00 | 0.00 | 0.00 | 47 | 1019.0 |
| 20260502191544 | 10 | 261 | 3.2 | 12.9 | 0.00 | 0.00 | 0.00 | 46 | 1019.1 |
| 20260502190046 | 10 | 257 | 0.0 | 11.3 | 0.00 | 0.00 | 0.00 | 47 | 1019.2 |
| 20260502184539 | 10 | 293 | 0.0 | 19.3 | 0.00 | 0.00 | 0.00 | 46 | 1019.4 |
| 20260502183037 | 10 | 288 | 1.6 | 9.7 | 0.00 | 0.00 | 0.00 | 45 | 1019.4 |
| 20260502181538 | 10 | 267 | 0.0 | 11.3 | 0.00 | 0.00 | 0.00 | 49 | 1019.5 |
| 20260502163027 | 8 | 276 | 1.6 | 11.3 | 0.00 | 0.00 | 0.00 | 53 | 1020.3 |
| 20260502161525 | 8 | 286 | 0.0 | 11.3 | 0.00 | 0.00 | 0.00 | 55 | 1020.4 |
| 20260502151548 | 8 | 269 | 0.0 | 11.3 | 0.00 | 0.00 | 0.00 | 57 | 1020.5 |
| 20260502123058 | 3 | 283 | 0.0 | 1.6 | 0.00 | 0.00 | 0.00 | 73 | 1019.9 |
| 20260502121557 | 2 | 242 | 0.0 | 1.6 | 0.00 | 0.00 | 0.00 | 75 | 1019.9 |
| 20260502114553 | 1 | 236 | 0.0 | 0.0 | 0.00 | 0.00 | 0.00 | 82 | 1019.3 |
| 20260502113055 | 1 | 336 | 0.0 | 0.0 | 0.00 | 0.00 | 0.00 | 86 | 1019.3 |
| 20260502111553 | 0 | 335 | 0.0 | 0.0 | 0.00 | 0.00 | 0.00 | 88 | 1019.4 |
| 20260502110059 | 0 | 335 | 0.0 | 0.0 | 0.00 | 0.00 | 0.00 | 87 | 1019.4 |
| 20260502104548 | 0 | 335 | 0.0 | 0.0 | 0.00 | 0.00 | 0.00 | 86 | 1019.3 |
| 20260502103046 | 0 | 335 | 0.0 | 0.0 | 0.00 | 0.00 | 0.00 | 86 | 1019.1 |
| 20260502101556 | 0 | 335 | 0.0 | 0.0 | 0.00 | 0.00 | 0.00 | 85 | 1019.1 |
| 20260502091533 | 1 | 335 | 0.0 | 0.0 | 0.00 | 0.10 | 0.00 | 80 | 1019.0 |
| 20260502071514 | 3 | 300 | 0.0 | 0.0 | 0.00 | 0.25 | 0.00 | 78 | 1018.6 |
| 20260502070030 | 3 | 273 | 0.0 | 0.0 | 0.00 | 0.25 | 0.00 | 79 | 1018.8 |
| 20260502064511 | 3 | 273 | 0.0 | 0.0 | 0.00 | 0.30 | 0.00 | 79 | 1018.7 |
| 20260502063025 | 3 | 273 | 0.0 | 0.0 | 0.00 | 0.30 | 0.00 | 77 | 1018.8 |
| 20260502061506 | 4 | 272 | 0.0 | 0.0 | 0.00 | 0.30 | 0.00 | 76 | 1019.1 |
| 20260502060004 | 5 | 28 | 0.0 | 0.0 | 0.00 | 0.30 | 0.00 | 75 | 1019.0 |
| 20260502054508 | 5 | 13 | 0.0 | 1.6 | 0.00 | 0.33 | 0.00 | 75 | 1019.0 |
| 20260502053002 | 5 | 355 | 0.0 | 0.0 | 0.00 | 0.33 | 0.00 | 74 | 1019.0 |
| 20260502051601 | 5 | 355 | 0.0 | 0.0 | 0.00 | 0.33 | 0.00 | 73 | 1019.1 |
| 20260502050058 | 5 | 355 | 0.0 | 0.0 | 0.00 | 0.33 | 0.00 | 72 | 1018.9 |
| 20260502044559 | 5 | 342 | 0.0 | 1.6 | 0.00 | 0.36 | 0.00 | 72 | 1018.9 |
| 20260502043054 | 5 | 22 | 0.0 | 1.6 | 0.00 | 0.36 | 0.00 | 71 | 1019.0 |
| 20260502041559 | 5 | 18 | 0.0 | 3.2 | 0.00 | 0.36 | 0.00 | 70 | 1019.1 |
| 20260502040050 | 6 | 33 | 0.0 | 0.0 | 0.00 | 0.36 | 0.00 | 69 | 1019.1 |
| 20260502034549 | 6 | 11 | 0.0 | 3.2 | 0.00 | 0.36 | 0.36 | 68 | 1019.2 |
| 20260502033050 | 6 | 53 | 0.0 | 6.4 | 0.00 | 0.36 | 0.36 | 67 | 1019.0 |
| 20260502031555 | 6 | 335 | 0.0 | 3.2 | 0.00 | 0.36 | 0.36 | 67 | 1018.9 |
| 20260502030047 | 6 | 40 | 0.0 | 4.8 | 0.00 | 0.36 | 0.36 | 68 | 1018.8 |
| 20260502024553 | 6 | 85 | 0.0 | 0.0 | 0.00 | 0.36 | 0.36 | 71 | 1018.6 |
| 20260502023102 | 6 | 20 | 0.0 | 0.0 | 0.00 | 0.36 | 0.36 | 71 | 1018.5 |
| 20260502021540 | 6 | 261 | 0.0 | 0.0 | 0.00 | 0.36 | 0.36 | 72 | 1018.1 |
| 20260502020038 | 6 | 143 | 0.0 | 0.0 | 0.00 | 0.36 | 0.36 | 72 | 1018.0 |
| 20260502014537 | 6 | 160 | 0.0 | 0.0 | 0.00 | 0.36 | 0.36 | 72 | 1017.7 |
| 20260502013034 | 6 | 159 | 0.0 | 0.0 | 0.00 | 0.36 | 0.36 | 71 | 1017.4 |
| 20260502011532 | 6 | 186 | 0.0 | 0.0 | 0.00 | 0.36 | 0.36 | 69 | 1017.2 |
| 20260502010034 | 7 | 47 | 0.0 | 0.0 | 0.00 | 0.36 | 0.36 | 67 | 1016.9 |
| 20260502004530 | 7 | 13 | 0.0 | 3.2 | 0.00 | 0.36 | 0.36 | 64 | 1016.7 |
| 20260502003026 | 7 | 338 | 0.0 | 0.0 | 0.00 | 0.36 | 0.36 | 64 | 1016.6 |
| 20260502001525 | 8 | 143 | 0.0 | 0.0 | 0.00 | 0.36 | 0.36 | 62 | 1016.5 |
| 20260502000039 | 8 | 274 | 0.0 | 1.6 | 0.00 | 0.36 | 0.36 | 62 | 1016.6 |